ECMWFNIL_250_rhum_000.txt.gz
RH
21 23 27 30 32 36 39 43 50 55 58 67 78 89 97 96 88 75 60 54 53 50 41 39 49 53 48 42 30 30 44 59 83 104 107 106 104 89 79 82 84 85
22 24 27 30 32 34 37 40 47 58 64 69 79 89 93 89 80 70 65 64 64 62 53 47 52 57 60 54 39 37 47 61 87 103 101 101 97 84 76 81 85 85
22 26 30 35 37 38 40 41 46 58 65 69 80 88 85 77 68 70 74 69 68 75 69 62 62 65 74 72 55 49 54 67 90 93 80 80 80 72 73 81 88 87
29 34 38 43 45 44 45 48 52 59 64 69 75 73 68 68 66 69 72 68 73 84 81 76 73 75 91 93 71 59 61 75 88 76 63 66 65 64 75 85 90 88
36 39 41 43 47 46 47 52 58 63 66 66 65 62 61 62 62 68 76 79 85 88 84 82 81 82 95 98 82 67 65 76 82 73 68 67 60 67 85 93 94 91
37 38 37 37 40 41 42 46 50 55 58 58 56 52 51 57 70 86 94 96 98 95 87 84 84 85 90 94 86 71 66 73 81 80 77 68 63 74 92 99 98 96
35 34 34 34 34 36 38 39 39 40 41 43 45 48 59 80 100 104 99 102 106 101 94 90 91 92 91 91 85 71 65 70 77 82 80 75 78 89 100 103 101 99
34 35 36 35 36 37 36 37 42 49 54 58 65 79 97 108 110 106 101 103 105 102 102 100 98 98 92 84 78 69 64 65 74 85 88 89 98 102 104 107 106 101
33 36 36 36 39 36 34 49 70 82 91 96 95 95 95 89 93 104 105 101 103 103 102 101 100 98 88 75 67 63 61 67 78 88 94 98 103 103 101 103 104 96
35 39 38 40 40 30 39 75 98 99 101 106 104 99 94 86 90 100 99 98 103 99 94 98 99 94 83 72 67 63 64 75 85 90 96 102 103 102 101 103 101 89
35 34 34 37 30 26 56 97 104 96 98 102 103 104 104 102 101 100 99 100 100 93 91 96 93 86 81 78 74 71 73 82 91 96 100 104 104 101 100 103 99 85
32 34 35 32 31 46 80 103 98 93 96 99 102 103 101 102 103 101 101 102 99 97 98 97 92 86 82 79 75 75 79 86 95 100 101 102 103 102 102 104 98 83
37 43 39 37 57 85 100 101 98 98 99 99 102 102 100 99 101 100 99 99 99 100 101 102 101 93 84 81 82 83 83 84 90 96 96 98 101 102 105 105 94 80
19 22 36 58 84 103 104 97 95 95 97 102 102 101 102 100 100 101 99 99 99 98 100 103 102 96 89 89 92 92 87 83 84 88 90 95 100 102 107 105 91 79
6 10 49 89 99 102 104 99 94 94 97 102 103 101 103 103 102 102 99 98 98 98 101 101 95 90 91 94 95 93 88 85 86 88 89 94 99 101 105 102 88 75
9 6 38 80 91 90 92 89 93 104 101 97 102 104 103 103 103 104 104 102 100 99 99 97 93 91 92 95 95 92 89 89 93 94 93 96 99 101 103 102 90 74
10 -0 12 58 87 85 82 85 96 106 100 96 101 102 101 104 103 105 109 109 106 103 98 95 98 99 97 96 97 94 91 93 96 97 98 99 100 101 103 102 93 77
9 -2 1 47 89 94 89 94 98 100 102 108 107 99 96 99 101 105 110 107 105 103 100 99 102 102 101 101 99 96 96 98 99 100 101 100 99 100 100 96 88 75
8 4 -4 17 62 89 96 101 101 97 97 102 103 104 111 110 104 105 106 101 101 102 101 102 102 101 103 102 97 98 101 102 101 101 101 99 98 99 96 89 82 73
9 8 -2 3 38 66 64 56 52 44 41 47 63 91 122 130 116 108 106 103 100 101 101 101 101 102 102 98 96 101 103 101 101 102 100 98 97 98 95 89 83 80
9 6 4 10 24 25 13 8 11 12 14 26 40 63 95 112 104 98 107 110 104 101 102 103 103 102 98 96 99 103 102 101 101 101 99 98 97 99 102 100 96 95
9 6 10 16 19 16 11 11 16 19 21 31 44 55 73 90 91 92 105 109 101 100 103 104 102 98 95 99 103 102 100 101 102 101 100 101 100 101 104 105 99 98
9 9 13 25 43 53 45 31 32 41 46 57 71 74 78 86 89 95 107 105 97 100 105 102 100 99 99 102 100 97 99 102 102 101 100 100 101 100 102 101 96 96
10 9 9 15 31 43 38 35 48 63 67 72 82 82 81 83 85 94 105 104 99 102 102 98 99 102 102 99 93 93 99 102 100 99 98 100 101 100 102 103 99 99
10 11 11 12 18 25 26 32 54 76 84 87 93 97 97 96 95 99 104 102 100 103 100 96 98 100 98 94 93 97 101 102 100 99 100 101 101 100 103 103 99 96
11 12 12 12 17 23 23 29 53 82 100 105 106 106 106 103 99 100 102 102 103 105 104 100 99 99 96 94 98 102 102 101 102 101 101 103 104 102 100 97 96 93

ECMWFNIL_250_rhum_003.txt.gz
RH
27 30 32 33 34 36 36 34 30 29 28 29 30 31 33 38 44 50 53 56 58 55 49 43 44 57 67 68 70 75 77 68 63 70 65 57 57 53 49 50 52 55
31 32 32 31 31 33 34 32 31 30 31 32 33 34 35 34 38 50 54 52 50 46 45 54 68 75 71 70 80 83 76 66 66 73 70 63 62 56 46 44 45 49
32 31 29 29 30 32 33 33 33 32 32 34 35 37 35 35 54 79 86 82 75 71 75 85 93 91 80 81 91 84 67 65 73 77 75 72 69 61 52 48 49 52
32 30 29 30 30 31 32 33 35 36 38 38 37 39 37 43 74 101 101 98 98 96 100 102 99 96 90 91 95 78 60 67 78 77 75 77 75 70 66 64 63 63
31 31 31 31 31 33 34 35 37 37 38 39 40 44 47 56 83 103 100 98 98 96 100 102 97 95 95 96 93 74 60 69 79 78 80 84 83 84 83 80 77 74
33 32 31 31 32 32 31 36 47 56 59 66 70 67 68 77 93 103 103 100 99 96 99 101 97 95 99 97 91 79 69 73 82 87 92 94 95 98 97 92 88 84
32 33 32 30 26 29 49 69 77 72 60 64 78 80 82 92 98 100 101 101 100 97 95 97 95 95 99 97 94 89 81 81 92 98 98 100 101 103 104 102 98 94
34 36 30 31 32 42 67 73 55 39 29 42 73 90 96 100 95 92 96 98 99 98 97 97 94 94 99 99 96 92 89 93 100 101 101 103 103 103 103 105 104 100
35 30 28 39 41 35 39 41 45 54 59 73 93 98 99 101 97 95 97 99 100 100 101 100 94 95 99 99 98 97 97 100 101 101 102 101 102 104 102 103 105 99
31 30 28 30 28 27 34 57 90 101 93 96 101 97 100 101 99 100 99 100 103 101 102 101 98 100 101 99 100 100 100 101 101 102 101 99 101 101 101 103 101 96
28 28 22 26 41 51 49 53 67 73 80 97 99 92 99 102 98 101 100 100 102 102 101 100 99 101 102 100 100 99 100 101 100 101 101 100 102 100 101 102 99 99
18 17 24 42 47 38 32 27 26 42 75 103 103 92 96 101 99 99 99 99 100 102 102 99 99 101 100 100 100 98 99 100 100 102 101 101 102 101 100 99 99 103
12 12 24 36 24 15 29 27 20 44 75 90 100 103 100 101 102 99 98 101 100 100 102 101 99 101 100 101 100 99 100 100 100 102 101 100 101 101 101 99 99 103
9 9 12 17 9 8 22 23 23 42 56 65 90 103 98 98 101 100 100 102 100 99 101 101 100 101 101 101 99 100 101 101 101 103 104 102 100 100 101 100 99 100
8 9 7 6 5 11 26 33 29 26 37 69 98 101 98 101 100 100 101 100 100 100 99 98 99 100 100 101 101 102 102 101 102 104 104 102 98 95 96 97 99 99
8 8 6 4 8 19 29 28 28 43 71 98 105 99 100 102 99 100 102 100 100 101 101 101 102 101 101 101 101 99 101 103 102 102 103 100 97 96 96 99 100 99
8 7 9 7 2 11 24 28 47 82 101 100 99 101 102 100 99 101 99 97 98 98 98 95 85 76 73 78 82 86 95 103 101 102 103 100 100 101 100 99 99 100
10 6 8 8 7 28 58 67 76 95 101 98 99 100 99 97 98 100 100 100 98 90 79 67 56 49 48 59 77 90 100 104 102 102 102 100 101 102 99 99 101 102
10 7 12 27 43 71 92 93 94 96 93 97 101 98 102 103 98 100 103 96 83 66 50 46 56 60 56 66 89 102 103 101 102 102 101 102 104 100 99 102 101 100
9 7 13 27 46 69 85 89 88 70 57 78 98 94 95 99 97 97 90 72 56 47 42 49 64 72 71 76 92 101 101 101 104 105 104 104 104 101 100 100 98 99
10 9 11 12 16 30 39 39 37 26 24 46 56 44 41 49 52 53 49 40 37 43 55 64 70 78 85 90 95 98 99 101 102 100 95 92 95 97 97 96 97 100
11 10 11 11 10 13 14 11 13 14 14 17 15 11 13 14 14 19 25 30 39 53 69 77 80 88 97 102 107 107 104 101 99 94 89 89 96 100 97 97 100 102
13 12 11 12 11 11 11 13 14 13 13 15 15 16 15 13 13 15 16 25 40 56 69 78 84 93 99 104 109 109 104 102 100 98 97 99 102 101 98 101 104 102
13 13 13 12 12 12 11 11 12 13 17 21 20 17 17 18 18 16 14 19 29 39 53 68 79 91 100 103 102 102 102 102 101 101 100 99 99 98 100 102 101 100
14 14 13 12 12 12 12 12 14 16 17 17 18 20 21 21 19 19 18 20 25 34 48 64 79 93 102 101 99 101 102 102 102 101 101 100 99 99 100 101 99 99
14 13 13 13 12 12 13 15 17 18 17 16 17 18 20 22 23 23 21 21 29 43 58 73 88 98 101 99 99 100 100 100 101 101 100 101 101 101 102 103 102 101

ECMWFNIL_250_rhum_006.txt.gz
RH
31 32 33 33 35 35 34 36 36 37 39 38 44 63 79 84 83 64 33 30 63 88 94 98 101 101 101 99 96 91 86 87 86 84 94 102 92 83 81 79 80 85
31 31 33 35 35 35 36 37 37 39 39 39 44 54 64 70 73 70 55 57 85 101 100 101 103 101 99 96 97 98 95 92 92 94 97 97 93 92 91 87 88 93
33 34 36 35 34 35 36 34 34 33 31 34 31 22 37 71 92 95 87 88 105 109 102 102 103 100 96 90 86 91 99 100 100 101 97 94 97 96 95 94 94 98
35 36 37 35 34 34 33 30 28 25 23 25 24 26 51 76 75 59 48 58 86 102 99 89 83 84 85 79 77 86 98 101 99 100 97 95 98 98 96 98 99 100
36 37 37 35 33 32 30 26 21 23 30 32 41 56 54 35 25 25 26 37 60 77 75 63 63 71 69 66 74 83 88 91 92 97 98 98 99 99 98 100 102 101
38 38 36 32 31 30 27 25 24 32 38 34 42 53 35 21 31 32 26 36 48 47 41 46 65 75 69 69 80 83 83 90 96 98 100 101 100 100 100 101 102 102
40 38 36 33 31 27 22 26 31 32 28 22 26 27 19 31 45 33 28 36 33 29 41 61 77 81 82 89 95 95 95 98 101 101 100 100 101 101 101 101 102 101
41 37 33 29 27 25 24 27 26 22 18 14 13 10 11 26 34 29 32 29 21 39 69 85 88 87 93 100 101 102 102 99 100 101 101 101 100 101 101 101 100 98
40 34 28 25 23 22 22 24 22 18 14 11 15 22 28 42 50 40 28 21 38 74 94 95 97 98 98 100 100 101 102 100 100 100 100 101 100 101 102 100 97 96
35 32 27 23 22 21 23 24 19 12 13 24 43 52 50 57 71 67 50 44 64 92 100 98 101 101 100 100 99 100 101 101 101 100 101 101 100 102 100 97 97 98
33 29 25 24 21 19 17 16 19 29 45 64 77 78 70 67 75 89 92 84 83 93 100 100 99 100 100 100 98 99 100 101 101 100 100 100 101 101 96 95 100 101
34 27 25 22 18 18 19 29 56 80 91 96 99 100 97 89 86 96 104 100 95 98 102 102 101 101 101 101 100 100 100 100 100 101 101 101 102 100 97 99 101 101
31 26 23 19 19 24 32 57 92 106 103 101 101 102 102 99 99 101 102 101 102 101 101 102 102 101 101 101 100 98 95 95 96 99 100 102 104 102 101 102 102 101
26 24 22 19 19 16 27 67 100 100 99 104 102 101 102 100 100 99 98 101 101 99 100 100 100 101 102 103 102 98 94 94 97 102 105 104 101 97 97 100 101 101
24 23 20 18 17 8 24 78 109 99 97 101 97 98 103 101 101 101 101 103 101 101 103 102 101 102 101 101 101 99 98 95 90 88 89 90 86 84 90 98 100 100
23 23 20 17 16 8 16 55 82 85 92 100 102 106 103 96 93 91 92 96 97 97 96 92 93 99 103 106 105 104 102 89 68 58 65 75 82 87 96 102 101 99
22 22 20 16 15 11 10 20 30 36 45 57 68 70 59 46 40 37 40 45 47 47 44 40 44 58 71 77 74 69 60 46 36 43 61 74 81 88 98 104 102 100
22 21 19 16 14 12 11 12 11 10 10 14 20 22 16 14 14 13 14 15 14 16 15 14 16 21 26 28 27 25 22 19 24 40 60 73 78 86 98 103 101 100
21 19 17 16 14 12 11 11 11 11 11 10 11 11 11 12 11 11 12 13 13 14 14 15 15 15 16 17 18 20 21 24 28 36 48 61 70 83 98 103 100 101
20 18 16 15 13 12 12 12 12 12 12 11 12 13 13 13 12 13 14 14 14 15 15 16 17 17 19 20 20 22 23 26 30 33 37 43 53 71 92 100 100 100
19 17 16 14 13 13 12 12 13 13 13 13 13 13 13 13 14 14 14 15 16 17 17 18 19 20 21 21 22 25 27 29 32 32 32 37 50 73 96 104 101 100
17 16 15 13 13 13 13 13 13 13 13 13 13 14 14 15 15 14 16 21 22 21 21 20 20 19 18 18 20 23 26 30 33 36 40 45 56 75 94 102 101 101
16 15 14 13 13 13 13 14 14 14 14 15 15 16 16 16 15 15 21 28 29 27 25 22 19 18 17 18 20 23 26 29 34 42 51 56 60 68 78 88 96 99
16 14 14 13 13 13 14 14 14 15 16 16 16 18 18 18 18 20 26 31 30 25 22 19 17 17 18 19 22 25 28 32 40 51 62 67 67 69 72 78 85 88
15 14 14 13 13 14 15 15 16 16 16 17 19 19 19 19 20 22 25 26 23 20 17 15 14 16 19 20 22 26 31 39 49 58 67 74 76 76 75 73 74 76
14 14 13 14 15 16 16 16 17 17 18 19 20 20 19 19 18 19 20 20 18 17 15 16 21 27 30 29 28 29 31 37 47 57 67 76 81 80 75 72 71 71

ECMWFNIL_250_rhum_009.txt.gz
RH
30 31 32 34 36 37 38 37 37 37 36 34 31 27 25 27 27 21 17 21 20 14 11 12 12 12 17 34 52 56 51 58 68 64 58 61 61 54 55 60 61 67
31 32 34 36 37 40 40 38 38 37 36 34 30 26 25 22 18 14 11 11 9 7 9 13 14 14 14 20 27 34 44 56 62 57 52 52 50 48 55 63 70 86
32 34 36 38 40 42 41 38 36 36 34 31 28 24 20 17 14 11 9 9 8 8 11 16 20 21 22 24 25 30 44 54 52 50 50 51 52 56 64 72 83 96
33 36 37 40 43 43 42 38 34 33 30 25 23 20 16 14 11 9 10 13 14 14 17 20 21 24 30 36 38 40 44 46 47 50 55 59 66 74 80 80 83 89
34 36 39 42 44 44 42 37 33 30 26 23 21 17 14 11 10 16 30 44 46 36 32 35 34 32 36 41 47 51 49 49 51 57 65 73 82 90 85 77 76 84
36 38 41 43 45 46 44 38 34 30 25 23 21 18 16 13 23 49 73 86 88 81 77 77 69 60 56 56 58 62 63 64 68 74 80 84 87 88 82 77 82 90
39 41 44 45 46 47 45 40 37 32 25 22 20 20 17 13 34 74 97 99 99 101 101 97 91 86 78 70 67 69 72 75 79 86 91 90 89 88 89 92 95 98
42 44 45 48 48 47 46 43 39 32 27 24 22 20 17 22 52 86 98 98 96 96 97 94 94 96 92 86 84 81 80 83 88 95 97 97 97 97 100 102 101 102
44 46 47 49 50 50 49 45 37 33 30 26 23 21 18 29 61 89 95 94 93 94 97 97 98 100 98 96 96 93 93 95 96 98 99 100 102 101 96 87 84 91
45 48 48 51 53 52 47 39 33 31 29 26 24 24 22 22 43 79 101 99 95 96 98 99 100 99 95 93 96 98 100 101 101 101 102 99 92 80 62 50 53 67
46 49 50 53 54 50 42 34 31 28 25 25 24 23 23 17 25 61 91 97 102 106 101 101 104 102 99 98 99 98 94 91 89 85 79 68 57 51 49 50 54 55
47 50 52 54 52 45 37 32 30 28 25 25 24 20 19 16 24 48 60 62 74 76 66 69 78 77 72 68 62 57 52 48 44 40 36 31 29 37 51 59 57 49
49 52 53 52 48 42 36 32 29 28 26 24 23 20 18 15 20 31 29 22 25 24 18 24 33 33 29 26 23 22 22 21 20 20 21 22 23 26 31 36 37 35
50 53 54 50 45 40 37 34 30 28 27 25 22 20 18 14 13 15 14 12 11 10 12 15 16 17 17 17 17 18 18 18 18 19 21 22 23 23 21 22 23 23
50 53 53 49 44 40 36 34 33 29 26 24 22 19 16 15 14 12 11 12 11 11 14 14 14 16 16 16 17 17 16 17 17 20 23 24 24 24 23 22 21 19
51 52 51 48 44 38 32 31 32 30 26 23 21 19 16 14 13 13 12 11 12 13 13 14 15 15 16 16 17 17 16 18 22 25 28 30 30 28 27 26 24 24
51 50 48 45 41 34 30 29 28 27 26 23 20 17 16 14 13 12 13 12 12 13 13 14 15 15 17 18 18 18 19 20 25 31 34 36 35 31 28 26 25 26
51 49 46 42 37 31 28 27 26 25 24 21 19 17 14 14 13 12 13 13 13 14 14 15 16 16 19 20 19 20 20 21 25 30 33 36 36 32 28 25 24 27
49 47 42 37 33 29 27 26 24 24 22 19 18 16 14 14 13 13 13 13 13 14 15 15 16 18 20 21 21 21 20 21 24 26 31 35 34 31 28 27 27 30
45 41 37 32 30 27 26 25 23 21 20 19 17 15 15 13 13 13 13 13 14 14 15 17 17 20 22 22 22 22 22 23 25 29 34 33 29 29 30 32 36 36
39 35 32 29 27 25 24 22 21 20 18 17 16 15 14 13 13 13 13 13 14 15 16 18 19 22 24 23 23 23 23 25 26 30 33 29 29 35 38 49 62 56
34 30 28 27 24 23 22 20 19 19 17 16 16 14 14 13 13 13 14 14 15 16 17 19 21 24 24 23 23 22 22 24 28 34 37 36 42 50 57 76 92 76
30 26 25 25 23 21 20 18 18 18 16 16 15 14 14 14 13 14 15 15 16 17 18 20 22 25 25 23 23 22 24 29 34 40 45 48 56 67 76 93 100 81
26 24 22 22 22 20 18 17 17 17 16 15 15 15 14 14 14 15 15 17 18 18 19 22 25 27 27 25 25 26 30 34 37 43 50 58 71 83 87 95 99 86
24 23 22 21 20 19 17 17 17 16 16 16 15 15 15 14 15 16 17 18 18 19 21 25 28 30 30 28 29 31 35 38 41 47 55 64 80 94 98 101 101 88
23 21 21 20 19 18 16 16 17 17 16 16 15 15 15 15 16 17 18 19 19 21 25 28 31 32 31 30 34 38 44 48 51 57 65 73 86 99 106 107 100 84

ECMWFNIL_250_rhum_015.txt.gz
RH
21 24 27 27 28 28 29 29 27 27 28 32 34 35 33 31 30 30 29 28 26 24 23 23 24 24 24 23 21 19 17 17 18 19 18 17 15 14 12 10 11 12
23 26 28 27 28 29 28 29 30 32 33 33 36 37 35 33 32 32 33 32 28 26 25 25 25 25 25 24 23 21 19 17 16 15 14 14 13 12 11 11 12 12
25 28 28 28 29 29 28 28 33 39 40 37 36 37 37 36 35 36 36 35 32 30 28 27 27 26 26 26 24 23 20 18 17 16 15 14 13 13 12 12 12 12
28 28 28 29 29 29 28 29 33 37 44 47 43 39 38 37 37 37 37 38 36 34 32 29 28 27 27 27 25 24 22 19 18 16 15 14 13 13 12 12 12 12
28 28 29 29 29 28 29 32 36 41 49 57 52 43 39 38 37 37 38 39 38 36 34 31 29 28 28 27 26 25 22 20 18 16 15 14 13 13 13 13 12 13
28 29 30 29 29 29 28 30 36 40 45 50 46 40 39 39 37 37 37 39 39 38 36 33 31 30 29 28 27 25 22 20 18 17 15 14 14 13 13 13 13 14
29 30 29 30 29 28 29 30 32 34 37 40 40 39 38 37 36 36 37 39 39 39 38 36 33 31 29 28 27 24 22 20 18 17 16 15 14 13 13 13 13 14
29 30 30 30 29 28 29 30 31 34 35 37 39 39 36 35 34 35 36 38 39 40 39 38 35 32 29 28 26 23 21 19 18 16 16 15 14 14 13 13 13 14
29 30 30 29 29 28 29 30 31 34 34 34 36 36 34 33 33 34 36 37 38 39 40 39 35 32 29 27 25 23 20 18 17 16 16 15 15 14 14 14 14 14
29 29 30 29 29 29 29 30 31 32 33 32 33 34 33 32 32 33 35 36 37 38 39 38 35 32 29 27 24 22 20 18 17 17 16 16 15 15 14 14 14 15
31 29 30 29 29 29 29 30 31 31 31 31 32 33 32 31 31 32 33 34 35 36 36 35 34 33 30 27 24 21 19 18 17 17 17 16 16 15 15 15 15 15
38 31 30 30 29 29 30 30 30 30 30 31 32 32 31 31 31 32 33 34 34 33 32 31 31 31 29 26 23 21 19 18 17 17 17 17 17 16 16 16 16 16
42 33 30 30 30 30 32 32 30 29 29 31 32 32 32 31 31 31 32 33 34 31 28 28 28 28 28 25 22 20 19 18 18 17 17 17 17 17 17 16 16 17
41 34 30 30 31 33 34 33 31 29 30 32 32 32 32 31 31 31 30 31 33 30 27 27 28 28 27 24 22 20 19 19 18 17 17 18 18 17 17 17 17 17
37 34 30 31 32 33 33 33 31 31 32 33 33 33 32 31 31 30 29 31 32 29 27 28 29 29 26 23 22 20 19 19 19 18 18 18 18 18 18 18 18 18
32 31 31 32 32 31 34 38 38 37 37 35 34 34 32 32 32 31 30 31 31 30 29 30 30 27 25 23 22 20 20 20 19 18 19 19 19 19 18 19 19 19
31 31 31 32 31 31 38 48 53 52 48 44 41 37 33 33 33 32 31 31 31 31 31 30 28 26 24 23 21 21 20 19 19 19 19 20 19 19 21 21 20 21
31 30 30 31 30 30 35 43 49 52 52 52 49 40 35 35 35 34 33 33 33 33 31 29 27 25 24 22 21 21 20 19 19 19 19 19 19 22 26 26 21 21
30 34 35 33 31 31 32 33 34 37 41 46 48 42 37 37 37 36 36 35 35 33 31 29 27 25 23 22 21 21 20 19 19 19 19 20 19 21 25 24 22 23
37 44 42 35 31 31 31 31 32 33 36 43 49 45 39 38 38 39 39 38 36 34 32 30 28 25 23 22 22 21 20 19 19 19 19 19 20 22 23 23 25 26
44 47 40 33 31 32 32 32 33 34 35 41 46 43 39 38 39 41 42 40 37 35 33 30 28 26 24 22 21 21 20 20 20 20 20 20 21 24 25 26 28 28
41 39 34 32 32 33 33 33 35 36 36 38 39 38 38 39 40 42 43 41 38 36 33 31 28 25 23 22 22 21 21 21 21 21 22 22 24 26 28 29 30 30
36 34 33 33 34 34 34 35 36 37 40 42 41 39 40 40 41 44 44 41 39 36 33 31 28 25 23 23 22 22 22 23 23 24 24 25 26 29 31 32 32 33
35 35 35 34 35 35 35 38 39 39 44 50 46 41 41 43 43 45 45 41 39 37 34 31 28 24 23 23 23 24 25 25 26 27 27 27 29 32 34 35 35 35
37 37 36 35 37 37 38 42 43 41 46 53 51 44 43 44 44 45 44 41 39 37 33 29 26 24 23 24 25 26 28 29 30 29 29 30 33 36 37 37 37 37
38 37 37 38 38 38 41 47 46 42 46 51 50 46 45 45 46 45 44 43 41 37 31 27 25 24 23 25 28 31 32 32 31 30 31 34 36 38 38 38 38 39

ECMWFNIL_250_rhum_021.txt.gz
RH
25 24 22 20 20 20 20 21 25 31 33 33 32 30 29 29 29 28 27 27 28 28 29 29 29 28 29 29 28 28 27 26 26 26 25 24 23 22 21 20 20 20
26 23 22 21 20 20 20 21 24 31 33 33 32 30 28 30 29 28 26 27 28 28 29 29 29 29 30 30 29 28 28 28 28 27 27 26 25 23 23 22 21 20
25 24 21 21 20 20 20 20 23 29 33 33 33 30 29 30 29 28 27 27 27 28 29 29 30 31 30 29 29 29 29 30 30 30 29 28 27 26 25 24 23 22
29 26 24 20 20 21 20 20 23 27 31 33 32 30 30 31 30 29 27 27 28 28 29 31 31 31 32 33 34 35 35 32 31 31 31 30 30 28 27 26 25 24
48 29 25 23 21 21 21 20 22 26 31 33 32 32 33 34 34 32 30 28 28 29 30 31 31 34 41 45 44 44 43 39 36 35 33 33 32 31 30 30 28 27
77 43 29 27 25 24 26 25 24 26 30 33 33 33 35 37 38 36 33 30 29 30 30 30 31 36 43 43 38 38 40 41 42 40 36 35 35 34 33 32 32 31
96 68 45 37 33 33 34 32 33 33 32 36 41 42 40 38 37 36 33 31 31 30 30 31 31 32 34 34 32 33 36 37 39 39 38 37 36 35 35 35 35 34
102 85 67 53 45 47 47 46 55 55 43 45 57 59 52 42 35 33 31 30 30 29 30 31 31 31 32 32 33 34 35 36 36 38 39 40 39 38 37 37 37 37
86 74 67 59 56 66 68 62 69 75 68 66 66 56 47 39 32 29 28 28 28 28 30 31 31 35 35 32 33 35 35 36 37 38 40 43 44 43 41 40 40 40
50 46 46 51 60 77 86 82 85 93 91 79 59 40 34 32 28 27 27 27 27 28 30 31 33 39 39 34 33 35 36 36 36 37 40 42 45 47 46 44 43 42
27 28 29 35 45 58 72 83 90 92 79 58 40 30 29 29 27 27 27 27 27 29 30 31 34 39 39 34 33 35 36 37 37 38 40 42 45 47 47 46 45 44
22 23 23 24 28 32 39 48 55 54 45 36 31 29 28 27 27 27 27 27 27 28 31 33 35 37 36 33 34 36 36 38 39 39 40 43 46 49 51 49 46 45
24 23 24 24 24 26 27 28 30 30 29 29 28 27 27 27 27 27 27 27 27 29 33 36 35 33 33 34 35 36 37 39 40 41 42 43 44 51 59 56 47 47
28 25 25 25 25 26 27 27 28 27 28 27 27 27 27 27 28 28 27 27 28 30 34 37 35 33 34 35 36 37 38 40 42 43 43 43 43 50 65 65 52 48
29 27 27 26 26 27 27 28 28 28 28 27 27 27 27 29 30 28 27 28 29 30 34 37 37 36 36 36 37 38 39 41 44 44 44 44 44 48 64 73 62 56
29 28 27 27 27 28 28 29 29 29 29 29 29 28 29 31 31 29 28 30 31 32 35 37 38 39 39 38 38 39 41 43 45 45 45 46 46 49 60 74 76 76
29 29 28 28 29 30 31 31 31 31 31 32 31 30 30 31 31 30 30 30 32 33 34 36 38 41 41 40 39 40 43 46 48 47 47 47 48 51 58 69 80 86
33 32 31 31 32 33 34 35 34 34 33 33 32 30 30 31 30 30 30 32 34 34 34 36 39 41 43 42 41 43 46 50 50 48 49 48 49 53 60 68 75 79
35 34 33 33 33 35 36 37 37 36 33 32 31 29 29 30 30 30 32 34 35 35 36 38 39 41 43 42 43 46 49 53 52 50 50 52 53 57 64 70 73 76
31 32 32 32 33 33 34 36 37 35 33 30 30 29 29 29 30 32 35 36 37 37 39 40 40 41 42 44 47 49 53 56 56 56 57 60 63 68 71 76 80 84
30 31 31 31 32 32 33 34 34 33 32 30 30 29 29 31 32 35 37 38 37 39 41 41 42 44 47 49 50 53 60 64 63 64 68 71 75 79 80 83 88 91
33 33 33 32 32 32 33 33 33 33 31 31 30 30 32 35 35 36 38 38 38 40 41 40 43 48 53 54 55 59 66 71 73 76 80 82 84 87 91 91 93 91
36 36 36 35 34 34 34 33 33 32 31 31 30 30 34 38 37 36 37 37 38 39 40 41 44 49 54 56 58 62 68 75 85 91 94 93 93 96 100 99 95 89
37 37 37 37 36 35 34 33 33 31 30 29 28 29 34 38 37 35 35 37 38 39 42 46 48 51 56 59 60 65 75 86 96 103 104 101 99 101 102 98 92 87
38 38 37 37 37 35 34 32 31 30 29 28 28 30 34 36 34 33 34 37 38 39 45 54 60 61 62 64 69 80 91 99 104 107 107 102 100 100 99 94 89 86
41 39 39 39 38 37 36 33 31 31 30 29 30 32 34 34 33 34 36 37 39 41 46 59 73 77 73 73 83 95 102 105 106 106 103 101 101 101 98 96 94 92

ECMWFNIL_250_rhum_024.txt.gz
RH
31 30 30 27 24 22 21 20 21 21 22 25 28 27 25 25 25 24 23 23 25 27 27 28 28 29 30 31 34 36 34 32 32 33 33 34 34 35 36 37 39 40
48 44 37 31 26 22 22 22 21 22 22 22 24 26 25 24 25 24 24 25 26 27 27 27 27 28 29 30 31 32 32 33 33 33 34 34 34 35 36 37 39 41
80 78 70 62 46 29 22 22 22 22 22 22 23 24 25 26 28 33 39 40 37 33 29 26 26 27 28 29 30 32 35 36 35 34 34 34 34 36 36 37 38 38
93 92 89 88 80 62 40 25 23 25 24 23 22 22 24 27 33 44 55 54 43 35 29 27 27 26 27 29 29 33 37 41 42 39 35 34 35 36 36 37 38 38
94 95 89 87 94 93 71 42 27 26 27 25 23 24 28 33 39 51 62 56 38 27 25 25 26 26 27 28 29 31 35 41 46 44 38 35 35 36 37 38 38 39
93 98 93 87 90 96 89 69 49 37 32 29 27 28 35 48 54 58 65 58 35 23 22 23 25 26 26 28 29 30 34 38 42 42 38 36 36 37 37 39 40 40
92 96 93 86 85 87 88 84 75 61 48 38 36 38 46 60 67 71 72 56 33 23 22 22 24 25 26 28 28 31 35 39 40 39 38 37 37 38 38 39 41 41
90 89 84 80 79 80 82 82 78 69 59 52 51 57 65 70 75 84 77 48 26 23 23 22 23 25 27 28 28 31 35 39 41 40 39 39 39 38 39 41 42 42
85 78 71 69 68 65 64 64 57 48 48 54 61 72 80 78 80 84 65 35 23 24 23 22 23 24 27 28 29 31 33 37 40 41 40 41 42 41 40 41 42 44
84 78 69 60 51 42 37 36 33 27 29 40 52 63 66 61 61 60 43 26 24 24 22 22 22 24 27 29 30 31 32 35 37 39 40 41 43 43 42 41 44 47
90 86 78 64 45 31 23 21 21 21 22 26 33 40 40 35 36 36 30 26 25 24 23 22 23 25 28 29 30 31 33 34 34 36 38 40 44 46 44 44 46 49
90 87 80 68 50 33 23 20 20 21 22 23 24 27 27 26 27 27 27 26 25 25 23 22 23 27 29 30 30 31 32 33 34 35 36 40 43 44 45 47 49 54
72 71 65 56 45 34 26 23 22 22 23 24 24 25 25 25 26 26 27 26 27 26 23 23 26 27 29 30 31 31 33 34 35 36 37 40 41 44 48 52 55 60
51 50 45 39 34 30 26 25 24 25 27 26 26 26 26 26 26 26 27 27 26 25 23 25 27 27 29 30 31 32 34 35 36 37 39 41 42 46 54 59 61 64
38 38 35 31 29 27 26 25 25 26 27 27 27 27 26 27 26 26 27 26 25 24 24 26 27 28 29 30 30 32 35 37 37 38 40 41 42 47 57 64 66 69
30 31 31 29 27 26 25 25 25 25 27 27 28 27 27 28 27 26 26 25 24 23 24 26 26 27 30 31 31 34 37 39 38 38 40 41 42 48 58 66 69 73
25 25 26 26 26 26 25 26 26 26 27 27 28 28 28 28 27 27 26 25 24 23 24 26 26 28 30 31 33 37 40 40 39 39 40 40 44 53 63 71 73 77
27 27 26 26 26 26 27 27 28 29 29 28 29 29 29 30 29 27 26 24 23 23 25 26 27 29 30 31 35 39 42 42 41 39 40 41 45 57 73 83 81 82
30 30 30 30 29 29 29 29 30 31 30 30 31 30 30 31 29 26 25 24 24 25 26 26 28 30 30 33 36 38 43 47 44 39 41 43 47 60 83 98 92 87
31 30 30 31 31 30 30 31 32 31 31 31 32 31 31 29 27 27 26 25 25 25 25 27 30 31 32 33 34 36 44 48 45 41 41 46 52 63 85 103 102 99
33 32 32 31 31 31 31 31 31 31 32 32 31 31 30 29 29 28 27 26 26 27 28 30 31 31 32 33 33 37 43 47 46 42 42 50 56 62 82 102 108 104
35 34 34 33 32 32 31 31 32 32 32 32 32 32 31 30 30 29 29 28 28 28 30 31 32 32 32 33 35 38 44 49 48 43 47 54 56 63 84 104 106 97
39 37 36 36 35 34 33 33 33 34 33 33 33 32 32 31 31 31 31 30 29 31 31 31 32 32 32 34 35 37 44 51 49 47 51 53 57 74 96 104 100 95
44 43 41 40 39 38 37 36 35 35 35 35 34 34 33 32 32 31 31 31 31 31 31 32 32 33 34 36 36 37 42 47 50 51 51 53 69 92 103 100 98 98
42 44 45 44 43 43 42 40 39 37 36 37 37 37 37 35 34 34 33 33 33 33 34 35 35 35 37 37 38 40 41 45 51 49 50 66 90 102 99 96 100 101
30 34 37 40 41 43 43 43 43 41 40 40 41 41 41 40 39 38 37 37 37 37 37 37 37 38 39 39 41 42 41 46 49 45 57 86 103 100 95 96 99 101

ECMWFNIL_250_rhum_027.txt.gz
RH
24 25 26 27 29 30 29 27 25 24 23 22 21 20 21 22 23 24 27 35 45 55 57 44 30 25 25 26 27 28 28 29 30 31 34 36 35 33 33 35 35 36
27 28 30 32 35 35 34 33 29 26 25 24 22 21 22 24 26 27 31 38 46 53 59 54 37 25 23 25 26 27 28 28 28 29 31 34 35 34 34 35 36 37
31 34 40 49 55 53 51 50 45 41 39 34 28 23 24 28 31 34 38 44 50 54 59 62 48 29 23 24 24 25 27 27 28 28 30 32 33 35 35 35 36 37
44 50 57 66 72 70 66 62 57 58 63 60 48 34 30 34 37 41 44 48 54 58 62 65 53 32 23 24 23 24 25 26 27 27 28 30 32 33 34 34 35 36
61 64 66 70 75 77 75 67 64 70 77 81 76 61 50 46 45 47 50 53 58 61 64 65 53 33 24 24 23 23 24 25 27 28 29 30 31 32 33 33 34 36
65 66 66 67 71 75 75 70 71 77 82 90 95 89 76 64 57 55 57 61 64 63 63 61 49 33 25 24 24 24 24 25 27 28 30 30 31 32 33 34 36 37
57 59 60 63 66 70 73 70 69 73 80 89 96 94 84 70 58 53 56 63 66 61 55 49 40 30 26 24 24 24 24 25 27 29 30 31 31 32 34 36 37 38
47 49 51 55 60 67 72 71 65 62 66 77 84 84 74 57 41 36 40 50 53 45 39 36 31 27 25 24 25 25 25 26 28 29 30 31 31 32 35 37 39 39
43 44 46 49 54 61 68 72 67 59 55 57 58 56 48 36 26 23 25 30 32 30 28 28 26 25 24 24 25 26 25 27 28 29 30 31 31 33 35 38 41 41
43 43 44 46 52 59 65 69 72 68 62 56 45 36 29 23 20 20 20 21 24 24 25 25 25 24 24 24 26 26 26 27 29 29 30 31 32 33 36 41 45 46
42 43 44 44 52 65 67 66 74 79 77 71 60 45 32 23 21 21 22 23 23 24 24 24 24 24 24 25 26 26 27 27 28 29 30 31 32 34 37 42 49 53
42 47 52 47 54 72 74 64 68 77 79 76 68 54 39 28 23 24 24 25 25 25 25 24 24 24 24 25 26 27 28 28 28 30 31 31 33 35 38 42 48 56
48 56 59 55 62 78 80 65 59 62 65 64 58 48 38 29 25 25 25 25 26 25 25 24 24 25 25 26 27 28 29 29 30 32 31 32 34 35 40 45 46 52
55 58 57 57 63 73 74 64 55 51 49 50 46 40 34 30 27 26 25 25 26 25 25 25 24 25 25 26 27 28 30 31 32 32 32 32 34 35 39 45 46 50
55 56 55 55 57 57 55 50 46 43 41 40 39 35 32 30 27 26 25 25 25 24 25 25 25 25 25 25 27 28 30 31 31 32 33 33 34 35 38 42 44 49
49 49 49 49 48 46 44 40 38 36 34 33 32 31 30 28 27 27 26 25 25 25 26 26 26 26 25 26 27 28 29 31 31 33 34 33 34 35 37 40 41 46
36 37 37 38 38 37 36 34 32 31 29 28 28 27 27 26 26 26 26 26 26 26 27 27 27 26 25 26 27 27 29 30 32 34 34 35 36 36 37 39 41 43
31 30 31 31 31 31 30 30 29 28 28 28 27 27 27 27 27 27 27 28 28 29 29 28 28 27 26 26 26 27 29 30 33 35 35 36 36 36 38 39 41 44
32 31 31 31 31 30 30 30 30 30 31 31 31 31 30 30 29 29 29 30 30 31 30 29 28 27 27 28 28 28 30 32 34 35 35 38 37 37 40 40 42 46
35 34 33 33 33 33 32 32 33 33 33 33 33 33 32 32 31 30 31 31 30 30 29 29 30 29 30 32 30 30 32 33 35 36 37 39 38 38 41 41 44 47
42 40 39 37 36 35 35 35 36 36 36 36 35 35 34 33 32 32 32 31 31 31 31 30 31 32 33 34 33 33 34 34 36 37 37 39 40 41 43 44 45 46
46 46 45 44 43 42 41 40 41 41 42 41 40 40 39 37 36 35 35 35 35 35 35 35 35 34 35 35 36 37 37 38 39 40 40 42 42 42 44 46 46 45
38 41 43 44 45 46 45 45 45 45 46 46 46 45 44 43 43 41 40 40 40 40 40 40 39 38 38 38 39 39 40 42 42 42 43 43 43 44 46 46 44 44
22 25 28 30 32 34 36 38 39 40 40 41 42 42 42 43 44 44 44 44 44 44 44 44 43 44 43 42 41 41 42 43 42 43 44 43 42 41 42 43 44 42
19 18 18 18 18 19 20 21 22 23 24 26 27 28 29 30 32 34 36 38 40 41 41 41 41 41 40 40 40 39 37 37 37 37 36 36 35 34 36 40 41 38
23 23 22 21 19 18 17 16 15 15 14 14 15 15 16 16 17 19 20 21 23 24 25 26 26 26 27 27 26 25 25 25 24 24 25 25 25 25 28 33 35 35

ECMWFNIL_250_rhum_030.txt.gz
RH
21 20 20 20 21 22 25 28 28 26 24 22 22 20 20 20 21 24 27 32 36 39 42 47 53 60 65 60 42 28 25 25 24 25 24 25 25 27 27 28 30 31
26 23 22 22 23 25 28 30 29 28 28 27 25 23 22 22 23 25 26 32 40 45 46 50 56 60 65 63 47 32 26 25 25 25 25 25 25 26 28 28 30 30
29 25 23 25 27 28 30 31 32 34 38 40 40 37 33 31 32 33 34 37 42 47 49 51 55 57 56 52 41 30 27 25 24 25 25 25 26 27 28 29 29 30
31 26 26 28 29 32 37 41 47 55 62 67 70 70 65 58 52 49 51 53 51 50 50 50 51 50 44 38 31 27 26 24 24 25 25 25 27 28 28 29 30 30
32 29 28 29 33 43 52 56 63 73 80 85 90 92 90 84 75 69 67 65 60 52 45 39 38 38 33 28 26 25 24 24 24 25 26 26 27 28 29 29 30 31
31 29 31 37 48 60 65 65 68 73 75 79 87 92 95 93 89 83 77 71 63 48 33 26 25 26 25 24 24 23 23 24 25 26 26 27 27 28 29 30 31 32
32 35 42 51 61 66 66 64 63 64 64 68 76 86 93 93 88 83 78 72 59 41 26 21 20 21 23 23 23 23 23 24 24 26 27 27 29 29 30 32 33 33
37 44 52 58 60 58 57 56 54 54 56 58 64 74 85 88 79 70 66 57 43 31 24 21 22 24 24 25 25 23 23 24 25 26 27 28 30 30 32 34 33 33
43 49 52 52 50 48 48 47 48 49 50 52 57 65 75 83 81 73 67 57 44 35 29 23 24 27 27 27 26 24 24 24 25 26 27 28 30 31 32 33 33 33
43 46 47 47 46 46 46 46 46 46 46 48 55 63 70 77 84 87 83 74 63 51 38 29 28 29 28 27 25 23 24 24 25 26 27 29 30 32 33 32 33 33
43 44 45 46 47 47 47 47 46 46 46 46 51 64 73 73 79 87 87 80 71 58 44 35 32 31 28 26 24 23 23 24 25 27 27 30 31 32 33 33 33 33
43 44 45 45 45 46 46 45 46 44 46 48 51 63 76 73 68 70 71 69 62 54 45 37 34 32 29 27 25 22 23 25 26 28 29 31 32 33 34 34 34 33
42 41 42 42 42 43 43 44 44 42 46 55 58 65 78 79 70 62 58 55 51 47 42 37 33 31 29 27 25 23 25 27 28 31 31 31 32 33 35 35 35 34
39 39 40 41 41 42 42 41 41 44 52 60 62 64 72 76 70 61 52 47 44 41 38 34 32 29 27 26 24 24 27 29 30 31 31 32 33 33 35 36 36 35
37 37 37 37 37 37 37 37 41 48 56 60 59 59 61 61 57 51 45 40 38 35 32 30 28 27 27 26 26 27 29 30 32 32 32 33 33 34 36 36 37 37
38 39 40 40 39 38 39 43 48 54 57 57 56 55 54 51 47 43 39 35 32 30 29 28 28 28 29 29 29 30 31 32 32 32 33 34 33 35 37 37 38 39
48 50 50 49 47 47 49 52 53 53 51 49 48 45 42 39 37 35 33 31 30 30 30 31 32 32 32 32 32 32 32 33 33 34 35 35 36 37 37 38 39 39
45 45 44 43 42 42 43 43 42 40 38 36 34 32 31 31 31 31 30 31 31 32 33 34 34 34 33 33 34 33 34 34 35 37 38 39 40 40 40 40 40 41
34 33 33 32 32 32 32 32 32 31 30 30 30 30 30 30 31 31 32 32 33 33 35 35 36 36 36 37 37 37 37 38 39 40 41 42 43 42 43 43 43 44
32 32 32 31 30 30 30 30 31 31 32 32 32 33 33 32 32 33 33 34 35 36 37 38 40 41 41 42 43 43 43 43 43 44 43 44 44 43 44 44 44 45
39 37 36 36 35 34 34 34 35 36 37 38 39 39 38 38 37 38 38 39 39 40 41 42 44 44 45 46 46 46 46 45 44 44 44 43 43 43 43 43 43 43
44 44 44 43 43 42 43 43 43 44 44 45 45 46 45 45 45 45 45 46 46 46 45 45 45 45 45 44 42 41 40 39 37 37 37 36 36 36 36 35 35 36
30 32 33 34 34 34 35 36 36 36 36 36 36 37 37 37 38 38 39 39 39 38 37 36 34 33 31 29 28 26 25 24 23 23 23 24 25 25 25 26 29 32
17 18 19 19 20 20 20 20 20 20 19 19 20 20 20 20 20 21 21 21 21 21 20 20 19 19 18 17 16 16 15 15 15 15 16 17 18 19 20 22 27 28
19 19 20 20 19 19 18 17 17 17 16 16 16 16 17 16 16 17 16 16 16 17 17 18 19 19 19 19 18 17 16 16 16 16 18 19 20 21 21 23 25 23
22 21 22 22 21 21 21 21 20 20 20 20 21 20 21 21 21 22 21 20 20 20 21 23 23 24 24 23 22 20 18 18 18 19 21 23 23 24 25 25 24 24

ECMWFNIL_250_rhum_033.txt.gz
RH
17 17 18 18 18 19 19 21 23 23 24 24 23 22 21 21 20 22 24 25 28 32 35 40 44 46 50 53 54 51 42 34 30 27 25 25 25 25 26 25 24 23
20 18 18 19 19 19 20 20 21 24 27 27 26 26 26 25 27 31 34 37 40 42 46 48 48 49 51 53 50 44 37 31 29 26 24 25 25 26 26 26 25 24
27 24 22 21 21 21 20 21 22 26 30 37 47 53 54 55 58 56 53 55 58 61 63 63 59 52 45 43 40 34 30 28 26 25 24 25 25 26 26 26 25 25
35 34 31 27 25 23 22 23 24 29 42 62 79 85 86 87 87 83 76 73 72 72 72 72 70 59 41 30 27 26 25 25 25 25 25 25 25 25 26 26 26 25
37 38 39 38 35 29 26 25 27 39 61 79 87 85 84 84 85 86 86 84 78 72 70 70 67 57 39 26 22 23 24 25 26 26 25 25 25 25 25 26 26 26
37 38 40 44 42 34 29 28 33 52 71 78 77 74 71 69 72 77 82 83 79 70 63 59 53 44 33 27 26 26 26 28 28 26 26 25 25 25 25 26 27 27
36 38 40 43 43 37 31 30 40 57 68 69 67 65 62 61 63 66 68 74 78 75 68 61 57 52 43 36 35 34 31 30 29 27 26 25 25 25 26 27 28 28
37 39 40 42 42 39 34 33 40 50 56 59 60 59 59 58 57 56 57 62 70 76 78 76 76 74 66 56 49 43 37 33 31 29 27 26 26 26 26 28 29 29
37 39 40 41 41 40 37 36 39 43 49 54 56 57 57 56 54 51 51 54 62 72 79 83 86 86 79 68 58 48 40 35 32 30 29 27 26 26 27 29 30 30
31 34 36 39 40 38 38 40 41 44 48 52 55 56 55 54 52 50 48 48 55 67 76 79 80 79 74 65 55 48 41 37 33 31 29 28 27 27 28 29 31 31
25 30 34 38 39 39 41 43 45 46 49 51 53 54 53 51 49 48 47 47 50 59 71 76 73 67 63 56 50 46 42 37 33 30 29 28 28 28 29 31 32 32
24 29 34 38 39 40 42 44 45 47 48 49 50 51 50 48 47 45 44 46 50 57 66 76 78 72 63 55 47 42 39 34 31 29 28 29 30 30 31 32 32 32
26 29 32 36 38 40 42 43 45 46 46 46 47 47 45 44 43 44 42 43 50 59 63 69 75 72 61 51 43 38 35 31 28 27 28 30 32 32 32 32 31 32
22 25 28 33 36 39 41 42 43 43 43 44 43 42 42 42 42 42 40 40 48 58 60 62 65 61 53 46 40 35 31 28 28 29 30 32 32 32 33 32 33 34
26 29 32 34 37 40 41 42 43 43 42 42 41 41 40 41 41 38 37 41 51 59 60 61 60 53 45 39 34 31 29 29 30 31 32 33 33 34 35 37 38 39
35 37 38 39 40 41 42 42 41 41 40 39 38 38 38 38 38 38 42 50 57 59 57 54 48 40 35 31 30 30 31 31 32 33 34 34 35 37 39 41 43 44
32 35 36 37 37 38 37 37 36 35 35 35 36 39 42 45 46 49 52 54 53 48 43 38 33 30 29 29 30 31 32 33 33 34 36 37 39 41 42 43 45 45
25 28 29 30 31 32 32 33 33 34 35 38 43 47 50 51 50 48 46 42 38 34 31 30 30 31 31 31 33 33 33 35 36 38 40 42 42 43 44 45 45 44
28 30 32 33 34 36 37 37 37 39 41 44 46 47 45 41 37 34 32 31 30 30 31 33 35 36 37 38 39 40 40 41 42 44 45 45 45 45 44 42 39 36
37 38 38 39 40 39 39 39 38 37 37 37 36 35 33 31 30 30 30 30 32 33 35 37 40 42 44 45 45 46 46 46 45 44 43 41 38 35 32 28 25 22
36 35 35 34 34 33 33 33 32 33 33 32 32 32 32 33 33 34 35 36 37 40 42 43 45 45 44 43 42 40 38 36 34 31 29 27 24 22 21 19 18 18
35 34 34 34 34 35 37 37 38 39 39 38 39 39 40 41 41 42 43 43 43 42 41 39 37 34 30 28 25 22 21 20 20 19 20 20 21 21 21 21 21 23
42 42 42 43 43 44 45 45 46 45 44 44 44 43 42 41 40 38 36 33 30 27 24 22 21 19 17 17 16 16 16 17 18 19 22 24 25 25 25 25 27 28
42 42 41 40 40 39 38 38 37 35 34 33 31 29 27 25 23 21 19 17 17 16 16 17 18 18 18 19 19 18 18 19 21 22 24 28 28 27 26 28 29 29
27 26 25 25 23 22 22 21 20 19 19 18 17 17 17 16 16 16 16 16 17 17 18 19 19 20 21 22 22 22 22 22 22 23 25 27 27 26 28 30 30 30
18 18 17 18 17 17 17 17 17 17 17 17 18 18 18 18 18 18 18 18 19 19 20 21 20 20 21 22 23 24 23 24 24 25 25 25 26 28 29 30 31 30

ECMWFNIL_250_rhum_036.txt.gz
RH
16 16 16 17 18 18 19 20 20 21 21 21 22 22 22 21 20 21 22 24 29 33 37 43 50 59 63 60 54 46 39 32 28 26 25 26 25 24 23 23 23 23
16 17 17 17 17 18 18 19 19 20 21 22 24 25 24 24 25 28 32 36 40 44 50 57 64 71 75 74 65 50 37 30 26 25 26 27 27 26 24 23 23 23
18 17 18 18 18 18 18 19 19 20 21 23 26 29 30 35 45 53 58 62 62 64 69 72 73 72 73 73 66 50 36 29 27 26 27 28 28 27 26 24 24 24
20 19 19 19 19 19 19 20 20 21 21 23 26 30 40 54 67 73 76 76 73 73 76 77 74 70 65 60 52 42 34 30 31 31 30 31 31 30 29 27 25 24
31 29 25 23 22 22 22 21 22 23 23 23 26 34 51 66 72 72 72 71 71 71 71 72 71 69 64 59 55 52 50 48 47 44 39 36 34 33 31 29 27 25
43 39 34 32 31 30 30 29 27 26 25 24 27 40 61 73 72 69 67 65 66 65 63 64 65 67 67 67 67 70 72 71 66 59 51 42 37 34 32 30 27 25
44 44 44 44 44 43 41 41 38 34 30 26 27 42 65 75 73 70 65 60 59 57 56 56 57 61 64 66 69 73 78 79 74 65 55 47 41 37 34 31 26 24
42 44 48 50 51 48 45 44 45 42 36 29 29 42 61 71 72 70 64 58 55 53 51 50 50 53 56 60 65 69 75 75 68 61 55 49 44 39 35 31 26 23
39 39 43 46 46 44 41 40 43 45 39 32 30 39 54 65 69 68 63 57 53 51 48 46 46 46 48 52 59 65 72 75 71 66 60 52 44 38 35 31 26 24
38 37 39 40 39 37 36 37 41 43 41 37 32 36 49 60 64 64 60 54 51 48 45 44 44 45 45 47 52 60 67 73 76 72 63 52 44 38 34 29 26 25
38 35 36 38 38 36 36 37 40 42 41 39 35 36 45 55 59 59 55 52 50 46 44 43 43 43 43 42 46 54 61 67 71 68 59 51 44 37 31 27 25 26
35 31 32 37 38 36 35 35 37 39 39 39 38 38 43 52 56 54 51 50 48 46 45 44 43 42 42 40 41 50 59 62 63 62 56 47 39 31 27 25 26 27
30 29 30 32 31 30 30 30 32 35 37 39 40 39 42 49 53 51 49 47 46 46 45 43 41 41 40 37 39 49 57 57 56 54 47 38 30 27 26 27 27 28
26 26 26 25 24 22 23 24 27 31 35 39 40 40 42 46 48 48 47 46 46 46 44 41 39 39 37 37 42 49 54 52 48 42 35 30 28 27 29 31 32 34
22 21 20 19 18 18 19 22 25 29 34 36 38 40 42 43 45 45 45 45 45 44 41 38 37 38 40 43 46 49 50 44 36 32 29 29 31 32 35 38 40 42
19 18 18 18 18 19 20 22 24 26 27 29 33 38 41 43 44 44 44 44 43 40 38 37 38 43 47 48 46 43 39 34 30 30 31 32 35 38 41 44 45 46
18 18 19 19 19 19 20 20 20 22 23 27 33 37 40 42 42 43 42 41 38 36 36 39 44 48 46 40 36 32 30 29 30 31 34 37 40 43 44 45 44 41
17 18 19 18 18 17 17 19 22 26 31 34 37 39 40 41 40 39 37 35 36 37 41 44 45 41 35 30 28 28 29 32 35 37 41 43 44 43 41 37 33 28
16 17 17 16 17 18 21 27 31 34 36 37 37 37 36 36 35 35 35 37 39 41 41 39 34 30 29 29 31 34 37 40 42 43 43 41 38 34 29 23 20 18
14 15 16 16 19 22 25 27 29 30 31 31 31 32 33 34 35 36 38 39 38 36 33 32 31 32 35 37 39 41 42 43 41 38 34 29 24 21 18 17 18 19
15 16 16 17 19 19 19 20 21 24 27 28 32 34 36 37 37 35 35 33 32 33 34 36 39 41 42 42 41 39 36 33 28 24 21 19 18 18 19 20 22 23
17 16 16 17 19 20 21 24 27 30 32 33 35 35 34 34 32 32 32 34 37 40 43 44 43 42 39 35 30 26 22 19 17 17 18 21 22 22 22 23 23 23
25 25 26 27 28 30 31 32 33 34 33 33 32 32 32 33 34 37 40 42 44 43 41 38 33 29 26 22 18 17 15 15 17 18 20 22 22 23 25 25 25 24
33 33 33 33 33 33 33 32 33 33 33 34 36 38 40 41 43 43 43 40 36 31 26 22 20 18 17 17 17 17 17 18 19 20 22 23 22 23 25 27 27 26
38 37 37 36 36 37 37 38 39 40 42 43 44 44 43 40 37 33 29 25 21 18 17 16 17 17 17 19 19 20 20 21 20 21 22 21 21 22 25 27 28 28
44 44 44 44 44 44 44 44 43 42 42 40 36 33 29 25 22 19 18 17 16 17 18 19 20 20 20 21 20 19 19 18 17 17 16 15 16 18 19 21 22 23

ECMWFNIL_250_rhum_042.txt.gz
RH
17 17 17 17 17 17 18 18 18 19 20 21 21 21 21 21 21 21 22 22 24 26 29 34 41 46 53 61 64 64 62 58 52 50 52 57 62 64 63 59 56 54
17 17 17 17 17 17 17 18 18 19 20 20 20 20 20 20 20 20 21 21 23 27 32 36 40 49 59 66 67 66 63 60 58 56 56 56 56 56 55 54 53 51
17 17 17 17 17 17 17 17 18 18 19 19 19 20 20 20 20 20 21 21 23 28 31 34 42 54 63 66 67 67 65 62 61 58 55 53 50 49 47 46 45 45
18 17 17 17 17 18 18 17 18 19 19 19 20 20 21 22 22 22 22 22 24 28 28 33 46 56 59 63 66 65 62 59 56 52 49 46 43 40 37 36 37 38
17 17 18 18 18 18 18 18 18 19 19 20 20 22 22 22 23 24 24 25 26 28 30 37 48 56 59 62 62 59 56 52 48 45 42 39 37 36 34 34 34 35
17 17 17 17 18 18 18 19 18 18 19 20 20 21 21 21 22 23 25 27 27 29 36 44 50 54 58 59 58 56 52 46 43 42 39 36 35 36 37 36 36 37
16 16 17 17 17 18 18 18 18 18 18 19 19 19 20 20 21 22 23 25 28 30 38 48 52 53 54 56 56 55 51 45 41 39 37 36 35 36 37 37 37 38
16 16 17 17 17 17 18 17 17 18 18 18 19 19 19 21 21 22 23 24 26 28 35 47 56 60 60 59 58 56 52 45 40 38 36 35 35 36 36 36 37 37
16 17 16 16 17 17 16 17 17 17 18 18 18 19 20 21 22 25 27 27 27 28 31 37 47 56 60 60 59 58 54 48 42 38 35 35 36 37 36 35 36 36
17 17 17 16 16 16 16 17 17 17 18 18 18 19 21 23 28 31 33 33 32 31 30 30 32 39 46 53 58 60 57 53 46 40 38 38 38 37 36 35 36 34
19 17 17 17 16 17 17 17 17 18 18 18 19 21 24 29 33 34 34 34 34 34 34 33 32 31 35 42 50 55 56 54 50 47 45 42 39 38 36 35 35 31
22 19 18 18 18 18 18 18 19 19 19 21 22 24 28 33 34 34 33 33 33 34 35 36 37 35 34 35 38 44 50 52 53 52 48 44 41 38 36 35 33 28
25 23 21 19 18 19 19 19 20 19 22 26 27 29 32 35 35 33 32 31 31 32 34 35 37 37 36 35 35 36 40 46 49 48 45 42 40 37 36 34 30 26
29 27 25 22 21 20 19 20 20 21 26 33 34 33 35 36 37 34 31 30 30 31 33 33 33 34 35 35 35 35 36 39 41 41 41 40 38 36 35 32 28 29
34 33 29 26 24 23 21 21 21 22 31 40 39 37 38 38 37 36 34 33 34 34 32 30 29 30 31 33 34 34 34 35 36 38 39 38 36 35 33 29 29 35
36 40 39 33 28 25 24 23 22 23 32 43 43 39 39 38 36 36 36 36 35 33 29 26 25 25 27 29 29 29 31 34 37 38 37 35 34 33 29 28 34 42
31 41 46 44 37 31 27 25 23 23 31 41 44 40 37 37 36 35 33 33 33 30 25 21 21 23 25 25 25 28 33 36 37 35 34 34 33 30 29 34 41 42
25 32 42 49 47 42 37 32 27 24 29 38 42 39 37 38 37 34 31 30 29 25 21 19 20 22 22 22 27 33 36 35 33 33 34 33 30 30 35 42 43 34
22 24 32 42 47 47 44 41 35 28 27 34 39 38 38 39 38 35 31 27 25 21 18 19 20 20 20 25 31 32 31 31 32 34 33 31 31 37 43 42 34 23
22 20 23 31 38 42 43 42 40 35 30 31 35 38 39 39 38 35 29 24 22 19 18 20 19 18 21 26 27 26 27 32 34 33 31 32 37 43 42 34 23 17
20 18 19 23 28 33 36 36 37 37 35 33 35 37 38 39 38 33 26 22 20 18 19 19 18 18 22 23 22 25 31 35 34 32 32 37 43 42 33 24 18 17
16 16 16 19 22 25 27 27 29 32 35 36 37 38 39 39 35 28 22 20 19 18 19 18 17 18 20 20 24 30 35 34 33 35 39 42 41 33 23 18 17 17
11 13 15 17 19 22 23 24 24 27 32 36 39 40 39 35 29 24 20 19 18 18 18 17 17 19 20 24 30 34 34 33 36 41 44 40 32 23 18 18 17 15
11 10 13 16 19 21 22 23 24 26 30 35 38 38 34 28 23 20 18 18 18 17 17 17 17 20 25 29 33 33 34 37 42 44 40 31 23 19 18 18 15 13
18 12 10 14 18 21 23 23 24 26 28 31 32 30 27 23 20 19 18 18 18 18 18 19 21 26 31 33 34 34 38 43 44 40 32 23 19 19 18 16 13 12
45 32 19 14 14 18 22 23 24 24 24 24 24 23 22 21 20 19 19 19 20 21 24 28 31 33 34 34 35 39 44 45 40 32 24 20 18 17 15 13 13 13

ECMWFNIL_250_rhum_048.txt.gz
RH
16 16 16 16 16 16 16 17 18 19 20 20 20 20 21 22 23 23 22 22 21 21 21 22 27 31 32 34 38 39 39 42 49 52 50 49 46 41 37 36 38 40
18 17 17 17 17 17 17 17 17 19 20 20 20 20 20 22 23 23 23 22 21 21 21 20 23 26 28 31 34 35 35 38 45 50 51 50 48 44 40 39 41 44
19 19 19 18 18 18 18 18 18 19 19 20 21 21 21 21 22 23 23 22 21 20 20 20 20 22 24 27 29 29 30 35 42 47 51 52 50 48 45 43 46 49
18 18 18 19 20 20 20 20 19 19 19 20 20 21 21 21 22 23 23 23 22 20 20 20 19 20 21 22 24 24 26 32 39 44 49 51 52 51 49 48 50 53
19 17 17 19 21 22 21 20 20 19 20 20 20 20 21 21 22 23 23 22 21 21 20 20 20 20 21 22 24 25 27 31 35 40 44 48 50 51 51 51 52 53
22 18 18 18 20 22 21 20 20 20 21 21 20 20 20 21 22 21 22 21 21 21 21 21 21 21 22 24 25 27 30 32 35 38 41 43 46 48 48 47 47 47
26 21 18 17 19 20 19 19 19 20 21 21 20 20 19 20 21 21 21 20 21 22 22 22 21 21 22 23 24 26 28 30 32 33 34 35 36 37 37 37 38 39
28 25 21 18 18 18 18 19 19 20 21 21 20 19 19 20 20 20 20 20 21 21 21 21 21 21 21 21 24 27 28 30 31 30 31 32 32 33 34 34 35 34
28 27 24 21 18 17 18 19 19 20 20 20 20 20 19 19 20 20 20 20 21 21 21 20 20 20 21 22 26 30 32 33 33 33 33 33 33 34 35 34 33 32
27 30 26 24 21 18 18 19 19 20 20 19 20 20 19 19 19 20 20 20 21 21 20 19 20 20 20 23 29 33 35 34 32 32 31 31 31 31 31 31 29 30
24 32 32 27 24 21 18 19 19 19 20 19 19 19 19 19 19 19 20 21 21 20 19 19 19 19 20 24 31 35 35 32 30 30 30 28 26 26 27 27 26 31
23 29 32 29 26 24 20 19 20 19 19 19 19 19 19 19 19 19 20 20 20 19 18 19 19 19 20 24 32 37 34 31 31 32 31 26 22 23 24 24 26 33
35 26 27 27 26 26 23 20 19 20 20 19 19 19 19 20 19 19 20 20 19 18 18 18 18 19 20 24 32 38 36 34 35 35 33 26 20 21 22 22 26 32
59 40 30 26 26 27 26 23 20 19 20 19 19 19 19 19 19 19 19 18 18 18 18 18 18 19 22 25 32 39 39 38 37 34 32 27 21 20 20 21 24 29
79 60 45 33 27 27 28 26 23 21 19 19 20 20 19 19 18 18 18 17 17 18 17 18 19 20 24 29 35 40 41 39 35 33 31 27 22 20 19 19 21 26
91 78 65 48 33 28 29 29 27 24 21 20 19 19 19 19 19 18 17 17 17 17 17 18 19 20 24 33 41 43 41 38 36 34 31 27 23 20 19 19 19 23
101 95 86 71 49 34 28 29 30 28 25 22 20 20 20 19 19 18 18 17 17 17 18 18 19 20 22 33 45 46 41 40 40 38 34 30 25 20 19 19 18 20
101 104 101 94 77 55 37 29 29 31 31 27 23 21 20 19 20 19 18 19 18 18 18 18 19 20 20 29 43 48 45 43 44 44 40 36 29 22 19 19 18 18
92 101 105 104 97 79 55 38 31 30 31 31 29 26 23 21 21 20 19 19 19 18 19 19 19 21 20 24 34 44 48 47 46 47 46 42 35 25 20 18 18 18
87 96 103 106 103 90 67 47 38 34 30 29 30 30 29 26 24 23 21 21 21 20 20 20 20 22 22 22 26 34 45 50 50 50 49 47 40 29 21 19 18 17
85 93 101 105 107 100 77 49 36 33 30 28 27 29 30 30 29 29 27 25 25 23 23 24 24 25 25 25 24 27 35 44 49 51 50 49 44 33 23 19 18 17
77 89 100 104 107 106 89 60 41 35 32 28 25 24 26 28 30 31 31 31 31 31 30 28 28 28 29 30 30 30 32 37 43 48 50 48 46 37 25 19 19 17
65 79 96 103 104 104 98 83 70 62 55 45 35 27 25 26 27 29 31 33 36 37 37 35 34 34 35 38 40 39 37 38 41 45 48 47 46 39 27 20 19 17
55 67 87 100 99 95 92 88 86 85 82 73 59 43 34 31 29 29 31 33 36 37 38 38 39 41 44 46 47 46 43 42 43 44 45 45 45 39 27 21 20 18
52 56 73 89 93 86 79 77 84 93 96 89 77 61 50 44 41 39 37 36 35 35 35 37 39 44 48 49 47 46 44 40 37 38 39 41 42 37 27 21 20 20
51 51 57 68 76 76 69 64 74 94 102 95 83 70 59 51 46 42 39 36 35 34 33 34 35 39 46 49 47 44 40 34 31 31 33 36 38 33 25 22 21 22